sat.trackr.live / text

‹ back to catalog

STARLINK-32373

NORAD 60923 · 2024-154W

PAYLOAD ACTIVE UNKNOWN

§ Identity

Operator
Country
US
Launch date
2024-08-31
Launch site
AFETR
Launch vehicle
Mass (kg)
RCS (m²)

Purposes: comms

External: N2YO · Heavens-Above · Gunter

§ Orbital elements

Epoch: 2026-05-24T18:57:33.391584Z

Period
94.11 min
Inclination
53.1614°
Eccentricity
0.0001204
Mean motion
15.30187590 rev/d
Perigee alt
474.4 km
Apogee alt
476.1 km
Semi-major
6,853.4 km
B*
-1.2018e-6
RAAN
290.5463°
Arg perigee
95.8919°
Mean anomaly
264.2219°
Rev number
9,799

§ Raw data

STARLINK-323731 60923U 24154W   26144.78996981 -.00000395  00000+0 -12018-5 0  99952 60923  53.1614 290.5463 0001204  95.8919 264.2219 15.30187590 97998

JSON: /api/v1/satellites/60923 · /tle

For live sub-satellite position, see the globe view (requires WebGL).

§ Visibility from observer

Set your observer location to see the next 7 days of passes ≥ 10°. The values pass through the URL so the page stays shareable.

No JS? Fill the form by hand. The geolocation button needs JavaScript.